Regional Weather Roundup
Issued by NWS

Home | Current Version | Previous Version | Text Only | Print | Product List | Glossary On
Versions: 1 2 3 4 5 6 7 8 9 10 11 12 13 14 15 16 17 18 19 20 21 22 23 24 25 26 27 28 29 30 31 32 33 34 35 36 37 38 39 40 41 42 43 44 45 46 47 48 49 50
000
ASUS45 KSLC 012310
RWRUT

UTAH REGIONAL WEATHER ROUNDUP
NATIONAL WEATHER SERVICE SALT LAKE CITY UT
500 PM MDT MON SEP 01 2014

UTZ001>011-023>025-020000-

NORTHERN UTAH

CITY           SKY/WX    TMP DP  RH WIND       PRES   REMARKS
HILL AFB       SUNNY     75  33  20 SW10      30.10F
LOGAN          SUNNY     76  39  26 S8        30.06F
OGDEN          SUNNY     76  33  21 VRB5      30.07F
PROVO AIRPORT  SUNNY     77  45  31 W8        30.08S
SALT LAKE CITY SUNNY     80  36  20 N6        30.06F
VERNAL         MOSUNNY   78  41  26 NE9       30.04F
WENDOVER       SUNNY     81  36  19 E9        30.04F
HEBER CITY     SUNNY     77  34  20 SW8       30.11S
WEST JORDAN    SUNNY     81  45  28 N10G21    30.09S

$$

UTZ012>022-026-027-020000-

SOUTHERN UTAH

CITY           SKY/WX    TMP DP  RH WIND       PRES   REMARKS
BRYCE CANYON   SUNNY     78  31  17 NW18G25   30.22S
CEDAR CITY     SUNNY     86  30  13 VRB7      30.05F
MILFORD        SUNNY     87  34  15 E5        30.02F
MOAB/CYNLANDS  SUNNY     88  32  13 NW7       29.96F
PRICE          SUNNY     83  29  14 NW10G25   30.08F
ST GEORGE      CLEAR     99  43  14 NW12G17   29.85F HX  94
KANAB            N/A     91  36  14 SW8       30.03F

$$

REGIONAL REPORTS     COLORADO/ARIZONA

CITY           SKY/WX    TMP DP  RH WIND       PRES   REMARKS
CRAIG, CO      MOSUNNY   74  34  23 W17       30.11S
GRAND JUNCTION SUNNY     84  34  16 NW8       30.00F
RIFLE          MOSUNNY   81  32  17 W13       30.04F
MONTROSE       SUNNY     83  36  18 NW13      30.07S
CORTEZ         SUNNY     87  30  13 W12G18    30.08F
PAGE, AZ       SUNNY     98  34  10 N9        29.93F HX  92
GRAND CANYON   SUNNY     82  36  19 S9G21     30.16F
KINGMAN        SUNNY     96  36  12 SW22G29   29.91F HX  91
FLAGSTAFF      SUNNY     79  39  23 SW15      30.21F

$$

REGIONAL REPORTS    NEVADA/IDAHO/WYOMING

CITY           SKY/WX    TMP DP  RH WIND       PRES   REMARKS
LAS VEGAS, NV  SUNNY    104  38  10 E7        29.73F HX  98
ELY            SUNNY     84  28  13 VRB7G18   30.09F
ELKO           SUNNY     82  25  12 SW10      30.05F
POCATELLO, ID  MOSUNNY   74  35  24 W18G25    30.08F
BURLEY         SUNNY     73  40  30 W10G17    30.05F
EVANSTON, WY   MOSUNNY   68  31  25 W15G24    30.20S
ROCK SPRINGS   SUNNY     70  28  21 W18G31    30.14R

$$



USA.gov is the U.S. government's official web portal to all federal, state and local government web resources and services.